Погода в Новой Боровой

Украина / Житомирская область     50°41′32″N   28°38′12″E
темп.,
°C
ветер,
м/с
пор.,
м/с
влажн.,
%
обл.,
%
осадки,
мм/ч
давл.,
гПа
погр.,
м
16 июня, ср
ср1600:00+15с48930 0.0 1014143
03:00+14с48904 0.0 1014148
06:00+13с388798 0.0 1015156
09:00+18с477373 0.0 1015392
12:00+22ссв566255 0.0 10161243
15:00+23ссв676526 0.8 10151403
18:00+22ссв57765 1.4 1015989
21:00+18ссв49885 2.8 1017180
17 июня, чт
чт1700:00+16ссв38935 0.0 1018143
03:00+14ссв49950 0.0 1018167
06:00+14ссв410940 0.0 1019207
09:00+19св578249 0.0 1020404
12:00+23св676686 0.0 10201238
15:00+25св67574 0.0 10201745
18:00+25св68660 0.0 1020940
21:00+19всв410840 0.1 1022195
18 июня, пт
пт1800:00+17всв39920 0.0 1023166
03:00+15всв38940 0.0 1023147
06:00+14св39945 0.0 1024203
09:00+19всв56775 0.0 1024460
12:00+23всв56667 0.0 10231079
15:00+25всв56572 0.0 10231543
18:00+24в57670 0.0 10221324
21:00+19в410841 0.0 1023245
19 июня, сб
сб1900:00+17в488840 0.0 1024162
03:00+16в37950 0.0 1024135
06:00+15в36950 0.0 1024156
09:00+20в56780 0.0 1024556
12:00+23в56580 0.0 10231326
15:00+25в5656100 0.0 10221607
18:00+24в566818 0.1 10211203
21:00+20вюв488470 0.1 1022163
20 июня, вс
вс2000:00+17в379346 0.0 1022128
03:00+16в369661 0.0 1022121
06:00+18всв3792100 0.0 1021208
09:00+19в589095 0.3 1021422
12:00+24вюв6863100 0.0 10201261
15:00+25вюв67595 0.0 10191275
18:00+25в576581 0.0 10191120
21:00+20в498350 0.0 1019193